Location: Chatou
(48.8898°N, 2.1586°E)
Time: 05:37:52
(UTC+00:00)

Cosmos 44 Rocket - Visible Passes

Search period start: 30 September 2023 00:00
Search period end: 10 October 2023 00:00
Orbit: 635 x 751 km, 65.1° (Epoch: 29 September)

Date Brightness Start Highest point End Pass type
(mag) Time Alt. Az. Time Alt. Az. Time Alt. Az.
30 Sep 6.1 03:43:26 10° SE 03:46:04 14° ESE 03:48:46 10° ENE visible
01 Oct 4.7 04:22:01 10° S 04:26:39 39° ESE 04:31:26 10° NE visible
02 Oct 5.8 03:23:29 10° SSE 03:26:49 18° ESE 03:30:13 10° ENE visible
02 Oct 3.4 05:02:37 10° SW 05:07:41 82° NW 05:12:54 10° NE visible
03 Oct 4.3 04:03:00 12° SSW 04:07:29 48° ESE 04:12:27 10° NE visible
04 Oct 5.4 03:05:11 16° SSE 03:07:34 22° ESE 03:11:29 10° ENE visible
04 Oct 3.4 04:43:54 12° SW 04:48:36 69° NW 04:53:48 10° NE visible
05 Oct 3.8 03:45:58 30° S 03:48:19 59° ESE 03:53:26 10° NE visible
06 Oct 5.0 02:47:55 27° ESE 02:48:20 27° ESE 02:52:39 10° ENE visible
06 Oct 3.5 04:26:38 25° WSW 04:29:32 58° NW 04:34:41 10° NNE visible
07 Oct 6.2 01:49:47 11° E 01:49:47 11° E 01:50:30 10° E visible
07 Oct 3.5 03:28:30 62° S 03:29:11 72° SE 03:34:23 10° NE visible
07 Oct 4.5 05:07:11 12° W 05:11:11 29° NW 05:15:43 10° NNE visible
08 Oct 5.0 02:30:17 30° E 02:30:17 30° E 02:33:44 10° NE visible
08 Oct 3.7 04:08:59 37° W 04:10:29 49° NW 04:15:34 10° NNE visible
09 Oct 6.3 01:32:01 11° ENE 01:32:01 11° ENE 01:32:13 10° ENE visible
09 Oct 3.6 03:10:42 69° NE 03:10:42 69° NE 03:15:17 10° NE visible
09 Oct 4.7 04:49:24 16° WNW 04:52:14 25° NNW 04:56:33 10° NNE visible
